Regional Weather Roundup
Issued by NWS

Home | Current Version | Previous Version | Text Only | Print | Product List | Glossary On
Versions: 1 2 3 4 5 6 7 8 9 10 11 12 13 14 15 16 17 18 19 20 21 22 23 24 25 26 27 28 29 30 31 32 33 34 35 36 37 38 39 40 41 42 43 44 45 46 47 48 49 50
000
ASCA42 TJSJ 160811
RWRPR
PUERTO RICO/U.S. VIRGIN ISLANDS HOURLY WEATHER ROUNDUP
NATIONAL WEATHER SERVICE SAN JUAN PR
400 AM AST TUE SEP 16 2014

PRZ001-004-160900-
PUERTO RICO

CITY           SKY/WX    TMP DP  RH WIND       PRES   REMARKS
SAN JUAN LMM   PTCLDY    79  75  89 CALM      29.96F
PONCE          PTCLDY    72  70  94 CALM      29.95F
CEIBA          CLEAR     75  72  88 CALM      29.98F
$$

PRZ006-007-160900-
U.S. VIRGIN ISLANDS

CITY           SKY/WX    TMP DP  RH WIND       PRES   REMARKS
CHARLOTTE AMA  CLEAR     79  73  83 E7        29.96
CHRISTIANSTED  CLEAR     75  73  94 N5        29.97F
$$

HOURLY WEATHER ROUNDUP FOR THE NEWS MEDIA

CITY           SKY/WX    TMP DP  RH WIND       PRES   REMARKS
MIAMI          PTCLDY    80  74  81 CALM      30.06F
ORLANDO        CLEAR     78  73  84 SW3       30.09F
NEW YORK       CLOUDY    64  55  72 SW10      30.05F
NEWARK         MOCLDY    60  53  77 SW5       30.05S
CHICAGO        CLEAR     49  46  90 W3        30.18S
HARTFORD       MOCLDY    48  46  93 CALM      30.05F
BOSTON         CLOUDY    56  50  80 S3        30.05F
DALLAS         CLOUDY    78  69  73 CALM      30.11S
PHILADELPHIA   CLOUDY    62  55  77 E7        30.02F


USA.gov is the U.S. government's official web portal to all federal, state and local government web resources and services.